Regional Weather Roundup
Issued by NWS

Home | Current Version | Previous Version | Graphics & Text | Print | Product List | Glossary On
Versions: 1 2 3 4 5 6 7 8 9 10 11 12 13 14 15 16 17 18 19 20 21 22 23 24 25 26 27 28 29 30 31 32 33 34 35 36 37 38 39 40 41 42 43 44 45 46 47 48 49 50
000
ASUS43 KTOP 182259
RWRKS

WEATHER ROUNDUP FOR KANSAS
NATIONAL WEATHER SERVICE GOODLAND KS
500 PM CST THU DEC 18 2014

NOTE:  "FAIR" INDICATES FEW OR NO CLOUDS BELOW 12,000 FEET WITH NO
SIGNIFICANT WEATHER AND/OR OBSTRUCTIONS TO VISIBILITY.

KSZ001>006-013>018-027>032-041>047-190000-
NORTHWEST KANSAS

CITY           SKY/WX    TMP DP  RH WIND       PRES   REMARKS
GOODLAND       CLEAR     38  30  73 N6        30.07R
HAYS           CLOUDY    34  21  60 CALM      30.15R
HILL CITY      CLOUDY    32  27  81 NW5       30.14R
RUSSELL        CLOUDY    31  28  89 E5        30.14S
$$

KSZ061>065-074>080-084>089-190000-
SOUTHWEST KANSAS

CITY           SKY/WX    TMP DP  RH WIND       PRES   REMARKS
DODGE CITY     CLOUDY    34  29  82 CALM      30.13R
ELKHART          N/A     36  27  70 E6          N/A
GARDEN CITY    CLOUDY    34  31  88 S5        30.11S FOG
GREAT BEND     CLOUDY    32  25  74 E3        30.16S
LIBERAL        CLOUDY    36  30  80 NE3       30.13S
$$

KSZ066>073-081>083-090>101-190000-
SOUTHEAST KANSAS

CITY           SKY/WX    TMP DP  RH WIND       PRES   REMARKS
CHANUTE        CLOUDY    34  33  96 N5        30.19R
COFFEYVILLE    CLOUDY    38  36  92 N5        30.19R
HUTCHINSON     CLOUDY    32  28  85 N5        30.18R
MEDICINE LODGE   N/A     36  31  82 NE5       30.16S
NEWTON         CLOUDY    30  25  80 N6        30.19R
PARSONS        CLOUDY    37  36  96 N6        30.20R
WICHITA INTL   MOCLDY    34  30  85 N8        30.18R
WICHITA JABRA  CLOUDY    33  29  85 N7        30.18R
WICHITA MCCONL CLOUDY    34  32  93 N6        30.18R
WINFIELD       CLOUDY    36  33  89 N6        30.19R
$$

KSZ007>012-019>026-033>040-048>060-102>105-190000-
NORTHEAST KANSAS

CITY           SKY/WX    TMP DP  RH WIND       PRES   REMARKS
CONCORDIA      CLOUDY    30  27  88 CALM      30.18S
EMPORIA        CLOUDY    32  29  88 N3        30.18S
LAWRENCE       CLOUDY    32  29  88 NE5       30.21S FOG
MANHATTAN      CLOUDY    33  30  88 NE3       30.19F
OLATHE IND     CLOUDY    32  30  92 N5        30.20R FOG
OLATHE EXE     CLOUDY    33  31  92 CALM      30.19R FOG
SALINA         CLOUDY    32  27  81 NW6       30.20S
TOPEKA BILLARD CLOUDY    33  30  88 N6        30.21S
TOPEKA FORBES  CLOUDY    33  29  85 N6        30.20R FOG
$$


USA.gov is the U.S. government's official web portal to all federal, state and local government web resources and services.